NETSAT-1

Last updated on Sat Aug 30 2025 00:03:48 GMT+0000 (Coordinated Universal Time)

1 46506U 20068W 25240.91327800 .00013569 00000+0 53839-3 0 9994 2 46506 97.8557 219.3760 0004758 326.1463 33.9469 15.25486337270604
UTC large
Height (km)
Speed (km/s)
/
Latitude / Longitude
Inclination (degrees)
Orbital Period (minutes)
Azimuth
Elevation
Range (km)
Doppler Factor

Next 0 passes for location: London (51.5072 / 0.1276)

Sorry there are no passes over London.